Wind_Speed
52 53 52 50 50 50 50 50 49 48 48 48 48 47 44 44 44 42 41 41 41 41 40 40 40 39 39 38 38 38 38 39 39 38 38 39 38 38 39 39 40 40 41 41
53 54 50 50 51 52 52 51 50 49 49 49 49 48 46 46 46 44 43 43 42 42 42 41 41 41 40 39 39 39 39 39 40 40 40 40 40 39 39 39 40 41 42 43
52 51 51 52 52 53 53 52 51 51 50 51 51 50 47 46 46 45 44 44 43 43 42 42 42 42 41 41 41 40 40 40 41 41 41 41 40 40 40 40 41 42 42 43
52 51 52 53 54 53 53 52 53 52 53 52 52 52 47 46 46 45 45 44 44 43 43 43 43 43 42 42 42 42 41 42 42 41 41 41 40 40 40 41 42 42 43 43
50 50 52 53 53 53 53 52 53 53 54 55 54 55 50 47 45 44 44 44 44 44 44 44 44 43 43 43 43 43 43 43 43 42 42 42 40 41 41 42 42 42 43 44
48 49 50 51 50 50 51 51 52 53 54 57 54 55 53 48 44 43 44 44 44 44 44 44 44 44 43 43 44 44 44 43 43 43 43 42 42 42 42 42 43 43 43 44
47 47 48 48 49 49 49 49 49 50 53 56 53 55 54 48 44 43 43 44 44 44 44 45 45 45 44 43 43 44 44 43 43 43 43 43 44 44 43 43 43 43 44 44
44 44 44 45 46 46 47 48 49 49 51 52 52 53 51 49 46 44 44 44 44 44 43 43 43 44 43 43 44 44 44 44 43 43 44 44 44 45 44 44 44 44 44 44
42 43 42 43 44 45 45 47 46 47 50 51 53 52 50 47 45 44 43 43 43 43 42 42 42 42 43 44 44 45 45 44 44 43 43 43 44 44 45 45 45 45 44 44
40 42 43 43 43 45 45 44 43 45 47 49 52 51 49 47 45 44 43 43 43 43 42 42 42 43 43 44 44 44 44 44 44 44 43 43 43 44 44 45 45 45 46 45
37 39 42 43 43 43 43 44 45 45 46 47 49 49 47 46 45 45 44 43 43 43 42 42 41 42 43 43 43 44 44 44 43 43 43 43 43 43 44 45 45 45 46 45
35 37 39 41 41 41 42 43 44 45 47 48 48 48 45 45 45 45 44 44 43 43 43 42 42 43 43 43 43 43 42 42 43 43 43 43 43 44 44 44 45 45 46 46
35 35 36 38 40 40 41 42 42 43 45 45 46 47 44 44 44 44 44 43 42 43 43 43 43 43 43 43 42 42 42 42 43 43 43 43 44 43 43 44 44 45 46 46
34 35 35 36 38 40 39 40 41 42 44 45 45 44 43 43 42 42 43 43 43 43 43 43 43 43 42 42 42 42 42 42 43 43 44 44 44 44 45 45 45 46 46 47
32 34 35 36 36 38 39 40 41 43 44 45 44 44 43 41 42 43 42 42 42 43 43 43 43 43 43 42 42 42 42 42 43 43 43 44 44 44 45 45 45 46 47 48
30 32 34 35 35 36 38 38 39 40 41 43 42 42 42 42 42 42 43 41 41 42 42 43 43 42 42 42 42 43 43 43 43 44 43 44 44 44 44 44 45 45 46 48
27 30 32 33 33 34 36 35 36 37 39 40 39 38 38 40 40 40 40 40 41 41 42 42 42 42 42 42 42 42 43 43 44 44 44 43 43 43 43 44 43 44 45 46
23 25 29 30 31 32 33 33 34 36 36 37 38 36 36 37 37 37 37 38 39 41 41 42 42 43 43 43 43 43 42 42 43 44 44 44 43 42 42 43 43 43 44 45
20 21 22 25 27 29 30 31 31 33 34 35 36 36 36 36 37 37 37 38 38 38 39 40 41 41 42 42 42 42 42 42 42 43 43 44 44 43 43 43 43 43 43 44
16 17 19 20 23 25 25 27 28 30 31 32 33 34 35 36 37 37 38 38 38 37 37 37 37 39 40 41 41 41 40 41 41 41 42 42 43 43 43 42 41 42 42 42
14 14 16 19 20 21 21 22 25 27 29 29 30 32 34 36 36 36 36 36 36 35 35 36 36 36 37 38 39 39 39 38 39 40 41 41 41 42 42 41 42 42 42 42
12 14 15 17 18 18 18 19 22 24 26 27 28 29 31 33 34 35 35 34 34 33 34 34 34 34 35 35 36 37 37 38 38 39 40 40 40 40 41 41 41 42 42 43
11 12 13 15 17 17 17 18 20 21 22 23 25 26 27 28 29 31 32 32 32 32 32 33 33 33 34 35 35 36 37 37 38 39 40 40 40 40 41 41 42 42 43 43
9 11 12 13 14 16 16 17 18 19 20 21 21 23 24 25 26 28 28 28 29 29 30 31 32 32 33 33 34 35 36 36 37 38 38 39 40 39 40 41 41 42 41 42
8 8 10 12 13 15 16 17 18 19 19 21 21 22 23 25 26 27 27 27 28 28 29 30 31 32 32 33 34 35 35 35 36 37 37 38 39 39 39 39 39 40 41 41
9 9 10 11 13 14 15 17 17 18 19 19 20 21 23 24 25 26 27 27 27 28 29 30 30 31 32 33 33 34 34 34 35 35 36 36 36 37 37 38 39 39 39 39
Wind_Direction
252 251 251 253 253 253 252 251 251 251 251 251 250 248 247 248 247 247 247 248 249 249 249 249 250 250 251 251 252 252 251 251 251 251 250 249 248 248 248 247 245 243 242 241
252 251 252 251 250 249 250 250 250 250 250 250 249 247 246 247 247 247 247 248 248 249 250 250 251 251 252 252 252 252 252 252 252 251 251 249 249 249 248 247 246 244 243 242
253 252 250 249 248 248 248 249 250 250 250 250 250 247 245 245 247 247 247 247 248 249 250 251 251 252 252 252 252 252 252 251 251 252 252 252 251 250 249 248 247 245 244 244
250 249 249 248 248 248 248 248 249 249 250 249 249 249 244 245 246 247 247 247 248 249 250 251 252 252 252 252 252 252 251 251 251 252 253 252 252 252 251 249 248 246 245 244
251 249 248 248 248 248 249 248 249 249 249 249 248 250 245 245 246 247 248 248 248 249 250 251 251 252 252 252 252 252 252 251 251 251 252 252 251 251 251 249 247 246 246 245
250 249 248 248 248 248 248 248 248 249 249 249 248 250 248 245 246 247 248 248 248 249 250 250 251 251 251 251 252 252 252 252 251 251 251 251 250 250 250 249 247 246 246 245
250 249 248 247 246 245 246 246 248 248 248 249 248 249 249 247 246 246 246 247 248 249 249 250 251 252 251 251 251 252 252 252 251 251 251 250 250 250 250 248 247 246 245 245
250 247 246 245 245 245 246 246 247 248 249 249 248 247 247 248 246 246 245 246 247 248 249 251 250 251 252 252 252 252 252 252 252 252 252 251 250 249 249 248 247 247 246 246
249 247 244 243 242 242 242 243 245 248 249 249 248 247 247 248 248 247 247 247 248 248 248 248 249 250 250 251 251 251 251 251 251 251 251 251 250 249 249 248 247 247 247 247
248 249 246 243 242 241 242 243 243 244 247 249 248 247 247 246 247 248 248 248 249 249 249 249 250 249 250 250 250 250 249 250 249 250 251 250 250 249 249 249 249 248 248 248
248 249 246 243 241 241 240 239 240 242 244 248 250 249 248 249 248 248 249 249 249 249 249 249 250 249 250 250 250 249 249 249 249 249 249 249 250 250 249 249 249 249 248 247
248 249 247 244 243 242 242 241 240 241 242 245 248 248 248 250 250 249 249 249 249 249 248 248 248 248 249 250 250 250 249 248 248 248 249 249 249 249 249 249 249 249 248 247
248 247 247 244 242 241 242 241 241 242 242 244 246 247 246 249 249 249 249 248 248 248 247 247 247 248 249 249 249 249 249 249 247 247 248 248 248 249 249 249 249 249 249 247
248 246 244 243 242 241 241 240 239 239 239 241 243 244 244 245 247 247 247 247 247 246 246 246 246 246 247 248 248 247 248 248 248 248 248 248 249 249 250 249 249 249 249 248
247 245 243 242 241 241 242 241 239 241 242 243 243 243 243 245 246 246 246 246 246 246 246 246 246 245 246 247 247 246 247 247 247 247 248 249 250 250 250 250 250 249 249 248
248 247 245 244 243 242 240 240 240 241 243 245 245 246 245 246 246 246 245 245 246 246 246 246 246 246 246 247 247 247 248 248 248 248 249 250 251 250 249 249 250 250 249 249
250 248 247 245 242 242 242 240 241 241 243 244 244 245 245 245 245 245 246 246 246 246 246 247 247 247 246 246 247 248 248 248 248 249 250 251 251 250 250 250 251 251 250 249
252 248 247 246 243 243 242 241 242 242 240 241 243 244 245 245 244 244 245 245 245 245 246 247 247 247 247 246 247 248 248 247 247 248 249 250 251 251 251 250 249 250 251 251
254 250 247 245 244 244 243 242 243 242 241 241 242 242 243 244 244 244 245 246 246 246 246 247 246 246 245 246 246 247 247 246 246 247 248 250 250 251 251 250 250 251 251 251
254 249 246 244 245 244 246 244 245 245 244 241 241 242 243 244 245 244 245 246 246 247 247 247 247 246 246 246 246 246 245 246 246 246 247 249 250 250 251 251 251 252 252 252
255 251 250 246 247 247 246 247 246 246 245 244 244 245 244 245 246 244 243 244 244 246 247 247 247 247 247 247 247 246 245 245 245 245 246 248 249 250 251 251 252 253 253 254
264 259 256 251 250 248 245 248 248 249 246 246 246 245 245 244 244 242 242 243 244 245 246 246 245 246 247 247 247 246 246 245 245 245 246 248 250 251 251 253 254 255 256 257
266 259 256 256 254 249 247 250 250 248 246 245 246 246 245 243 241 240 241 242 245 246 245 245 245 245 246 247 247 248 248 248 247 246 247 248 249 251 253 254 255 256 258 257
273 260 256 255 255 253 250 250 252 249 247 247 247 248 246 244 242 241 241 243 244 245 245 245 245 244 243 244 245 248 248 249 248 248 248 249 250 252 254 255 256 257 257 257
284 268 259 258 259 257 255 256 256 255 251 248 249 249 247 245 244 243 243 243 245 245 245 245 246 245 244 244 246 248 248 248 248 248 248 250 251 253 255 257 258 258 257 257
289 283 272 268 265 262 260 259 260 259 255 252 250 248 247 248 247 245 244 244 246 247 247 247 247 247 247 247 247 247 247 247 248 248 248 249 251 253 255 256 258 257 257 257
Height
5643 5645 5649 5655 5659 5662 5664 5667 5670 5675 5677 5679 5682 5687 5692 5694 5697 5701 5704 5707 5709 5712 5714 5717 5719 5722 5724 5727 5729 5732 5734 5736 5738 5740 5743 5745 5748 5751 5754 5757 5759 5762 5766 5770
5628 5632 5640 5643 5644 5647 5650 5654 5658 5662 5664 5666 5669 5674 5680 5683 5686 5690 5694 5697 5699 5702 5705 5707 5710 5713 5715 5718 5720 5723 5725 5727 5729 5732 5734 5736 5739 5742 5745 5748 5750 5754 5757 5761
5613 5622 5626 5627 5630 5633 5637 5642 5646 5649 5651 5653 5656 5662 5669 5673 5675 5679 5683 5686 5689 5692 5695 5698 5700 5703 5706 5708 5711 5713 5716 5718 5720 5722 5725 5727 5730 5733 5736 5738 5741 5744 5748 5752
5599 5606 5609 5612 5616 5620 5625 5630 5633 5635 5637 5640 5644 5647 5658 5662 5665 5669 5673 5676 5679 5682 5685 5687 5690 5693 5696 5698 5701 5703 5706 5708 5710 5713 5715 5718 5721 5724 5727 5729 5732 5735 5739 5742
5585 5591 5594 5598 5604 5608 5612 5616 5619 5621 5623 5626 5632 5634 5644 5650 5654 5659 5662 5665 5668 5671 5674 5677 5679 5682 5685 5687 5690 5692 5695 5698 5700 5703 5706 5708 5711 5714 5716 5719 5722 5725 5729 5733
5573 5576 5580 5585 5591 5594 5597 5601 5604 5606 5608 5612 5621 5623 5629 5639 5644 5648 5651 5654 5657 5660 5663 5666 5668 5671 5674 5676 5679 5682 5684 5687 5690 5692 5695 5698 5701 5704 5706 5709 5712 5715 5718 5722
5559 5563 5566 5571 5576 5580 5583 5588 5590 5592 5594 5600 5609 5610 5618 5627 5632 5636 5640 5642 5645 5648 5652 5655 5657 5660 5663 5666 5669 5671 5674 5677 5679 5682 5685 5687 5690 5693 5696 5699 5702 5705 5708 5712
5545 5550 5555 5559 5563 5568 5572 5576 5579 5582 5585 5590 5594 5598 5608 5614 5619 5623 5627 5631 5634 5637 5641 5644 5647 5649 5652 5655 5658 5660 5663 5666 5668 5671 5674 5676 5679 5682 5685 5688 5691 5694 5698 5701
5532 5538 5544 5547 5551 5556 5559 5563 5568 5571 5573 5577 5580 5588 5596 5602 5607 5612 5616 5620 5623 5626 5629 5633 5636 5639 5641 5644 5647 5650 5652 5655 5657 5659 5662 5665 5668 5671 5674 5677 5680 5684 5687 5691
5521 5526 5531 5536 5539 5543 5548 5553 5556 5558 5561 5564 5569 5577 5585 5591 5596 5600 5604 5608 5612 5615 5619 5622 5625 5628 5630 5633 5636 5638 5641 5644 5646 5648 5651 5654 5657 5660 5663 5666 5669 5673 5677 5681
5511 5515 5520 5523 5527 5532 5537 5541 5544 5548 5551 5555 5559 5568 5574 5579 5584 5589 5593 5596 5600 5604 5608 5611 5614 5616 5619 5622 5624 5627 5629 5632 5635 5637 5640 5643 5646 5649 5652 5655 5659 5662 5666 5670
5501 5504 5508 5513 5518 5521 5526 5530 5534 5538 5541 5545 5549 5559 5563 5567 5572 5576 5581 5585 5589 5592 5596 5599 5602 5605 5608 5611 5613 5616 5618 5621 5624 5626 5629 5632 5635 5638 5641 5644 5648 5652 5655 5659
5491 5495 5498 5502 5508 5511 5514 5519 5523 5528 5532 5535 5539 5548 5553 5557 5560 5565 5569 5573 5577 5581 5584 5588 5591 5594 5597 5600 5602 5605 5607 5610 5612 5615 5618 5621 5625 5628 5631 5634 5637 5640 5644 5648
5482 5485 5489 5492 5495 5499 5504 5509 5513 5516 5519 5524 5529 5536 5542 5546 5549 5553 5557 5561 5565 5569 5573 5576 5580 5583 5586 5589 5591 5594 5596 5599 5601 5604 5607 5610 5614 5617 5620 5623 5626 5629 5633 5637
5472 5476 5478 5482 5486 5489 5494 5499 5503 5506 5510 5514 5520 5525 5532 5536 5539 5542 5546 5550 5554 5558 5561 5565 5568 5571 5574 5577 5580 5583 5585 5588 5590 5593 5596 5599 5602 5605 5608 5611 5615 5618 5621 5625
5464 5467 5470 5473 5477 5480 5484 5489 5492 5496 5500 5504 5510 5515 5520 5524 5527 5531 5535 5539 5542 5546 5549 5553 5556 5560 5563 5566 5569 5572 5574 5577 5579 5582 5585 5588 5591 5593 5596 5600 5603 5606 5610 5613
5457 5459 5462 5465 5469 5471 5476 5480 5483 5487 5491 5496 5500 5506 5509 5513 5516 5520 5524 5528 5531 5534 5538 5541 5545 5548 5551 5554 5557 5560 5563 5565 5568 5571 5574 5577 5579 5582 5585 5588 5591 5595 5598 5601
5450 5452 5454 5457 5462 5464 5470 5472 5475 5478 5483 5486 5491 5495 5499 5502 5506 5510 5513 5517 5520 5523 5526 5529 5532 5536 5539 5542 5545 5548 5551 5553 5556 5560 5563 5566 5568 5571 5574 5576 5580 5583 5586 5589
5445 5447 5448 5451 5454 5457 5462 5464 5467 5470 5474 5478 5481 5485 5488 5492 5496 5500 5503 5506 5509 5512 5515 5518 5521 5524 5528 5531 5534 5537 5540 5542 5545 5548 5552 5555 5557 5560 5562 5565 5568 5571 5574 5577
5440 5441 5444 5445 5448 5451 5455 5457 5459 5463 5466 5469 5472 5475 5479 5482 5486 5491 5493 5496 5499 5502 5504 5507 5510 5513 5516 5519 5522 5525 5528 5531 5535 5538 5541 5543 5546 5549 5552 5554 5557 5560 5563 5566
5436 5437 5439 5440 5442 5445 5448 5450 5452 5457 5459 5461 5463 5466 5469 5472 5476 5480 5483 5486 5489 5492 5495 5497 5500 5503 5505 5508 5511 5514 5518 5521 5524 5527 5530 5533 5536 5538 5541 5543 5546 5549 5551 5554
5433 5434 5435 5436 5438 5442 5442 5444 5447 5448 5450 5453 5455 5458 5460 5463 5466 5470 5473 5477 5480 5482 5485 5487 5490 5493 5496 5498 5501 5504 5507 5510 5513 5516 5520 5522 5525 5528 5530 5532 5535 5537 5539 5542
5430 5431 5431 5433 5436 5436 5437 5438 5440 5441 5443 5446 5448 5450 5453 5455 5458 5462 5465 5468 5471 5473 5476 5478 5481 5484 5487 5489 5492 5495 5497 5500 5503 5506 5509 5512 5514 5517 5519 5522 5524 5526 5528 5530
5428 5428 5428 5429 5430 5431 5432 5433 5434 5436 5438 5440 5441 5444 5446 5448 5451 5454 5457 5459 5462 5464 5467 5469 5472 5475 5477 5480 5482 5485 5487 5490 5493 5496 5499 5502 5504 5507 5509 5511 5513 5515 5517 5519
5425 5425 5425 5426 5427 5428 5429 5429 5430 5431 5432 5434 5436 5437 5439 5442 5444 5446 5449 5451 5454 5456 5458 5461 5463 5466 5468 5470 5472 5475 5477 5480 5483 5486 5488 5491 5494 5496 5498 5500 5502 5504 5506 5507
5423 5423 5423 5423 5423 5423 5424 5424 5425 5426 5427 5429 5430 5432 5433 5435 5437 5439 5441 5444 5446 5448 5451 5453 5455 5457 5459 5460 5463 5465 5467 5470 5473 5475 5478 5481 5484 5486 5488 5490 5492 5493 5495 5496